Time,TemperatureF,DewpointF,PressureIn,WindDirection,WindDirectionDegrees,WindSpeedMPH,WindSpeedGustMPH,Humidity,HourlyPrecipIn,Conditions,Clouds,dailyrainin,SoftwareType,DateUTC
2013-03-17 00:40:00,29.7,24.6,30.07,NNE,23,0.0,0.0,81,0.00,,,0.00,WUHU21623XXSP,2013-03-17 05:40:00,
2013-03-17 01:40:00,29.3,24.5,30.07,NE,45,0.0,0.0,82,0.00,,,0.00,WUHU21623XXSP,2013-03-17 06:40:00,
2013-03-17 02:40:00,29.3,24.2,30.06,ENE,68,3.8,3.8,81,0.00,,,0.00,WUHU21623XXSP,2013-03-17 07:40:00,
2013-03-17 03:40:00,29.3,23.6,30.06,NE,45,10.3,10.3,79,0.00,,,0.00,WUHU21623XXSP,2013-03-17 08:40:00,
2013-03-17 04:40:00,29.5,23.8,30.07,NE,45,10.7,10.7,79,0.00,,,0.00,WUHU21623XXSP,2013-03-17 09:40:00,
2013-03-17 05:40:00,29.5,23.2,30.10,ENE,68,7.6,7.6,77,0.00,,,0.00,WUHU21623XXSP,2013-03-17 10:40:00,
2013-03-17 06:40:00,29.3,23.0,30.11,NE,45,9.4,9.4,77,0.00,,,0.00,WUHU21623XXSP,2013-03-17 11:40:00,
2013-03-17 07:40:00,29.5,23.2,30.12,East,90,4.9,4.9,77,0.00,,,0.00,WUHU21623XXSP,2013-03-17 12:40:00,
2013-03-17 08:40:00,31.3,24.0,30.12,East,90,9.6,9.6,74,0.00,,,0.00,WUHU21623XXSP,2013-03-17 13:40:00,
2013-03-17 09:40:00,33.6,25.3,30.13,East,90,6.3,6.3,71,0.00,,,0.00,WUHU21623XXSP,2013-03-17 14:40:00,
2013-03-17 10:40:00,34.3,25.3,30.13,East,90,8.1,8.1,69,0.00,,,0.00,WUHU21623XXSP,2013-03-17 15:40:00,
2013-03-17 11:40:00,34.3,25.3,30.12,East,90,6.7,6.7,69,0.00,,,0.00,WUHU21623XXSP,2013-03-17 16:40:00,
2013-03-17 12:40:00,38.1,27.8,30.11,ESE,113,9.8,9.8,66,0.00,,,0.00,WUHU21623XXSP,2013-03-17 17:40:00,
2013-03-17 13:40:00,39.4,28.3,30.08,East,90,8.3,8.3,64,0.00,,,0.00,WUHU21623XXSP,2013-03-17 18:40:00,
2013-03-17 14:40:00,39.2,28.1,30.05,ESE,113,8.3,8.3,64,0.00,,,0.00,WUHU21623XXSP,2013-03-17 19:40:00,
2013-03-17 15:40:00,39.0,28.3,30.02,ESE,113,10.5,10.5,65,0.00,,,0.00,WUHU21623XXSP,2013-03-17 20:40:00,
2013-03-17 16:40:00,39.0,28.7,30.02,East,90,9.8,9.8,66,0.00,,,0.00,WUHU21623XXSP,2013-03-17 21:40:00,
2013-03-17 17:40:00,37.2,27.7,30.00,East,90,10.1,10.1,68,0.00,,,0.00,WUHU21623XXSP,2013-03-17 22:40:00,
2013-03-17 18:40:00,34.3,26.3,29.98,East,90,8.1,8.1,72,0.00,,,0.00,WUHU21623XXSP,2013-03-17 23:40:00,
2013-03-17 18:51:00,33.6,25.8,29.98,ESE,112,8.7,8.7,73,0.00,,,0.00,WUHU21623XXSP,2013-03-17 23:51:00,
2013-03-17 18:52:00,33.6,25.8,29.97,East,90,6.5,8.7,73,1.35,,,1.35,WUHU21623XXSP,2013-03-17 23:52:00,
2013-03-17 18:57:00,33.4,26.0,29.97,East,90,7.2,10.1,74,1.35,,,1.35,WUHU21623XXSP,2013-03-17 23:57:00,
2013-03-17 19:02:00,33.3,25.8,29.98,East,90,7.6,10.1,74,1.35,,,1.35,WUHU21623XXSP,2013-03-18 00:02:00,
2013-03-17 19:07:00,33.1,25.6,29.97,East,90,10.3,13.2,74,1.35,,,1.35,WUHU21623XXSP,2013-03-18 00:07:00,
2013-03-17 19:12:00,32.9,25.8,29.97,East,90,8.1,13.2,75,1.35,,,1.35,WUHU21623XXSP,2013-03-18 00:12:00,
2013-03-17 19:17:00,32.7,25.6,29.98,East,90,8.7,11.0,75,1.35,,,1.35,WUHU21623XXSP,2013-03-18 00:17:00,
2013-03-17 19:22:00,32.7,26.0,29.98,East,90,11.0,12.3,76,1.35,,,1.35,WUHU21623XXSP,2013-03-18 00:22:00,
2013-03-17 19:27:00,32.5,25.8,29.98,ESE,112,9.4,16.1,76,1.35,,,1.35,WUHU21623XXSP,2013-03-18 00:27:00,
2013-03-17 19:32:00,32.7,26.0,29.98,East,90,8.3,16.1,76,1.35,,,1.35,WUHU21623XXSP,2013-03-18 00:32:00,
2013-03-17 19:37:00,32.7,26.0,29.98,ESE,112,8.3,14.8,76,1.35,,,1.35,WUHU21623XXSP,2013-03-18 00:37:00,
2013-03-17 19:42:00,32.7,26.0,29.98,East,90,13.9,14.8,76,0.00,,,1.35,WUHU21623XXSP,2013-03-18 00:42:00,
2013-03-17 19:47:00,32.7,26.0,29.98,ESE,112,12.1,14.1,76,0.00,,,1.35,WUHU21623XXSP,2013-03-18 00:47:00,
2013-03-17 19:52:00,32.7,26.0,29.98,East,90,13.4,14.1,76,0.00,,,1.35,WUHU21623XXSP,2013-03-18 00:52:00,
2013-03-17 19:57:00,32.7,26.0,29.97,ESE,112,9.4,16.6,76,0.00,,,1.35,WUHU21623XXSP,2013-03-18 00:57:00,
2013-03-17 20:02:00,32.7,26.0,29.97,ESE,112,8.7,16.6,76,0.00,,,1.35,WUHU21623XXSP,2013-03-18 01:02:00,
2013-03-17 20:07:00,32.7,26.0,29.97,East,90,9.4,15.0,76,0.00,,,1.35,WUHU21623XXSP,2013-03-18 01:07:00,
2013-03-17 20:12:00,32.7,26.0,29.96,East,90,8.5,15.0,76,0.00,,,1.35,WUHU21623XXSP,2013-03-18 01:12:00,
2013-03-17 20:18:00,32.7,26.0,29.97,East,90,9.8,14.5,76,0.00,,,1.35,WUHU21623XXSP,2013-03-18 01:18:00,
2013-03-17 20:23:00,32.7,26.0,29.97,East,90,12.5,15.9,76,0.00,,,1.35,WUHU21623XXSP,2013-03-18 01:23:00,
2013-03-17 20:28:00,32.7,26.0,29.96,East,90,9.8,15.9,76,0.00,,,1.35,WUHU21623XXSP,2013-03-18 01:28:00,
2013-03-17 20:33:00,32.7,26.0,29.95,ESE,112,13.9,17.7,76,0.00,,,1.35,WUHU21623XXSP,2013-03-18 01:33:00,
2013-03-17 20:38:00,32.7,26.0,29.95,East,90,10.5,17.7,76,0.00,,,1.35,WUHU21623XXSP,2013-03-18 01:38:00,
2013-03-17 20:43:00,32.7,26.0,29.95,East,90,10.7,17.7,76,0.00,,,1.35,WUHU21623XXSP,2013-03-18 01:43:00,
2013-03-17 20:48:00,32.7,26.0,29.96,East,90,8.3,17.7,76,0.00,,,1.35,WUHU21623XXSP,2013-03-18 01:48:00,
2013-03-17 20:53:00,32.7,26.0,29.96,East,90,7.6,15.0,76,0.00,,,1.35,WUHU21623XXSP,2013-03-18 01:53:00,
2013-03-17 20:58:00,32.9,26.1,29.96,East,90,8.9,14.8,76,0.00,,,1.35,WUHU21623XXSP,2013-03-18 01:58:00,
2013-03-17 21:03:00,32.9,26.1,29.96,ESE,112,10.3,14.1,76,0.00,,,1.35,WUHU21623XXSP,2013-03-18 02:03:00,
2013-03-17 21:08:00,32.9,26.1,29.95,East,90,7.2,15.0,76,0.00,,,1.35,WUHU21623XXSP,2013-03-18 02:08:00,
2013-03-17 21:13:00,33.1,26.3,29.95,East,90,8.3,15.0,76,0.00,,,1.35,WUHU21623XXSP,2013-03-18 02:13:00,
2013-03-17 21:18:00,33.1,26.3,29.95,East,90,10.1,14.3,76,0.00,,,1.35,WUHU21623XXSP,2013-03-18 02:18:00,
2013-03-17 21:23:00,33.1,26.6,29.96,East,90,8.5,13.6,77,0.00,,,1.35,WUHU21623XXSP,2013-03-18 02:23:00,
2013-03-17 21:28:00,32.9,26.4,29.95,ESE,112,9.4,15.2,77,0.00,,,1.35,WUHU21623XXSP,2013-03-18 02:28:00,
2013-03-17 21:33:00,32.9,26.4,29.95,East,90,13.6,15.2,77,0.00,,,1.35,WUHU21623XXSP,2013-03-18 02:33:00,
2013-03-17 21:38:00,33.1,26.6,29.94,East,90,13.2,16.1,77,0.00,,,1.35,WUHU21623XXSP,2013-03-18 02:38:00,
2013-03-17 21:43:00,33.1,26.6,29.94,East,90,10.1,16.1,77,0.00,,,1.35,WUHU21623XXSP,2013-03-18 02:43:00,
2013-03-17 21:48:00,33.1,26.6,29.95,East,90,10.5,15.0,77,0.00,,,1.35,WUHU21623XXSP,2013-03-18 02:48:00,
2013-03-17 21:53:00,33.3,26.8,29.95,ESE,112,10.1,14.5,77,0.00,,,1.35,WUHU21623XXSP,2013-03-18 02:53:00,
2013-03-17 21:58:00,33.3,26.8,29.94,East,90,10.3,15.4,77,0.00,,,1.35,WUHU21623XXSP,2013-03-18 02:58:00,
2013-03-17 22:03:00,33.3,26.8,29.94,East,90,8.5,15.4,77,0.00,,,1.35,WUHU21623XXSP,2013-03-18 03:03:00,
2013-03-17 22:08:00,33.3,26.8,29.94,East,90,10.3,15.2,77,0.00,,,1.35,WUHU21623XXSP,2013-03-18 03:08:00,
2013-03-17 22:13:00,33.3,26.8,29.94,East,90,11.2,14.5,77,0.00,,,1.35,WUHU21623XXSP,2013-03-18 03:13:00,
2013-03-17 22:18:00,33.3,26.8,29.93,East,90,6.9,14.5,77,0.00,,,1.35,WUHU21623XXSP,2013-03-18 03:18:00,
2013-03-17 22:23:00,33.3,26.8,29.93,East,90,10.7,15.2,77,0.00,,,1.35,WUHU21623XXSP,2013-03-18 03:23:00,
2013-03-17 22:28:00,33.4,26.9,29.92,East,90,11.6,15.2,77,0.00,,,1.35,WUHU21623XXSP,2013-03-18 03:28:00,
2013-03-17 22:33:00,33.3,27.1,29.92,ESE,112,13.9,14.1,78,0.00,,,1.35,WUHU21623XXSP,2013-03-18 03:33:00,
2013-03-17 22:38:00,33.3,27.1,29.92,ESE,112,8.1,15.9,78,0.00,,,1.35,WUHU21623XXSP,2013-03-18 03:38:00,
2013-03-17 22:43:00,33.3,27.1,29.92,ESE,112,9.2,17.9,78,0.00,,,1.35,WUHU21623XXSP,2013-03-18 03:43:00,
2013-03-17 22:48:00,33.3,27.1,29.92,ESE,112,14.8,17.9,78,0.00,,,1.35,WUHU21623XXSP,2013-03-18 03:48:00,
2013-03-17 22:53:00,33.3,26.8,29.92,ESE,112,12.5,20.1,77,0.00,,,1.35,WUHU21623XXSP,2013-03-18 03:53:00,
2013-03-17 22:58:00,33.1,26.6,29.92,East,90,14.3,20.1,77,0.00,,,1.35,WUHU21623XXSP,2013-03-18 03:58:00,
2013-03-17 23:00:00,33.1,26.6,29.92,East,90,13.4,16.3,77,0.00,,,1.35,WUHU21623XXSP,2013-03-18 04:00:00,
2013-03-17 23:01:00,33.1,26.6,29.92,ESE,112,13.2,16.8,77,0.00,,,1.35,WUHU21623XXSP,2013-03-18 04:01:00,
2013-03-17 23:06:00,33.1,26.6,29.91,ESE,112,12.8,16.8,77,0.00,,,1.35,WUHU21623XXSP,2013-03-18 04:06:00,
2013-03-17 23:11:00,32.9,26.4,29.91,ESE,112,9.2,22.6,77,0.00,,,1.35,WUHU21623XXSP,2013-03-18 04:11:00,
2013-03-17 23:16:00,32.9,26.4,29.91,East,90,13.0,22.6,77,0.00,,,1.35,WUHU21623XXSP,2013-03-18 04:16:00,
2013-03-17 23:21:00,32.9,26.4,29.90,ESE,112,9.2,18.3,77,0.00,,,1.35,WUHU21623XXSP,2013-03-18 04:21:00,
2013-03-17 23:26:00,32.7,26.3,29.90,East,90,12.1,18.3,77,0.00,,,1.35,WUHU21623XXSP,2013-03-18 04:26:00,
2013-03-17 23:31:00,32.7,26.3,29.90,East,90,8.7,17.2,77,0.00,,,1.35,WUHU21623XXSP,2013-03-18 04:31:00,
2013-03-17 23:37:00,32.7,26.6,29.90,ESE,112,9.2,17.2,78,0.00,,,1.35,WUHU21623XXSP,2013-03-18 04:37:00,
2013-03-17 23:42:00,32.7,26.3,29.89,ESE,112,9.2,17.0,77,0.00,,,1.35,WUHU21623XXSP,2013-03-18 04:42:00,
2013-03-17 23:47:00,32.7,26.3,29.89,East,90,9.6,17.0,77,0.00,,,1.35,WUHU21623XXSP,2013-03-18 04:47:00,
2013-03-17 23:52:00,32.7,26.3,29.89,ESE,112,10.3,19.7,77,0.00,,,1.35,WUHU21623XXSP,2013-03-18 04:52:00,
2013-03-17 23:57:00,32.7,26.6,29.89,ESE,112,6.3,19.7,78,0.00,,,1.35,WUHU21623XXSP,2013-03-18 04:57:00,